This demonstration page uses our WeatherBlox Daily Observations layout. Learn more.

Left ArrowRight Arrow

47.50024, -111.30081

Hourly Observations for April 13, 2022

Temp ( °F °C ) Dew Point ( °F °C ) Humidity (%) Winds ( mph kmh ) Pressure ( in mb ) Visibility ( mi km ) Precip ( " mm )
12:25 am 00:25 Cloudy with Light Snow 13 -10.6 10 -12.2 88 88 NNW 5 7 30.40 1029 1 1 0.00 0.00
12:53 am 00:53 Cloudy with Light Snow 13 -10.6 10 -12.2 88 88 NNW 8 13 30.32 1027 1 2 0.00 0.00
1:31 am 01:31 Cloudy with Light Snow 12 -11.1 9 -12.8 87 87 NNW 7 11 30.40 1029 2 3 0.00 0.00
1:53 am 01:53 Cloudy with Light Snow 12 -11.1 9 -12.8 87 87 NW 8 13 30.33 1027 2 3 0.00 0.00
2:10 am 02:10 Cloudy 13 -10.6 9 -12.8 84 84 NNW 10 17 30.40 1029 7 11 0.00 0.00
2:48 am 02:48 Cloudy with Light Snow 12 -11 9 -13 85 85 NNW 9 15 30.41 1030 2 3 0.00 0.00
2:53 am 02:53 Cloudy with Light Snow 13 -10.6 9 -12.8 84 84 NNW 9 15 30.33 1027 2 3 0.00 0.00
3:26 am 03:26 Cloudy with Light Snow 12 -11.1 8 -13.3 84 84 NW 8 13 30.40 1029 2 3 0.01 0.25
3:53 am 03:53 Cloudy with Light Snow 12 -11.1 9 -12.8 87 87 NW 9 15 30.33 1027 2 3 0.01 0.25
4:06 am 04:06 Cloudy with Light Snow 12 -11.1 9 -12.8 87 87 NW 12 19 30.40 1029 2 3 0.00 0.00
4:16 am 04:16 Cloudy with Light Snow 12 -11.1 8 -13.3 84 84 NW 10 17 30.40 1029 2 3 0.00 0.00
4:53 am 04:53 Cloudy with Mist and Fog 11 -11.7 8 -13.3 88 88 NW 12 19 30.33 1027 5 8 0.01 0.25
5:53 am 05:53 Cloudy with Light Snow 11 -11.7 8 -13.3 88 88 NW 13 20 30.34 1027 5 8 0.00 0.00
6:53 am 06:53 Cloudy with Mist and Fog 12 -11.1 8 -13.3 84 84 NW 12 19 30.34 1027 4 6 0.00 0.00
7:12 am 07:12 Cloudy with Mist and Fog 11 -11.7 8 -13.3 88 88 NW 13 20 30.42 1030 3 4 0.00 0.00
7:53 am 07:53 Cloudy with Mist and Fog 12 -11.1 8 -13.3 84 84 NW 12 19 30.35 1028 3 4 0.00 0.00
8:29 am 08:29 Cloudy with Haze 13 -10.6 8 -13.3 81 81 NW 12 19 30.42 1030 3 5 0.00 0.00
8:53 am 08:53 Cloudy with Haze 13 -10.6 8 -13.3 81 81 NW 14 22 30.36 1028 3 5 0.00 0.00
9:42 am 09:42 Cloudy with Light Snow 15 -9.4 9 -12.8 77 77 NW 14 22 30.40 1029 3 4 0.00 0.00
9:53 am 09:53 Cloudy with Light Snow 15 -9.4 9 -12.8 77 77 NNW 13 20 30.36 1028 3 4 0.00 0.00
10:03 am 10:03 Cloudy with Light Snow 15 -9.4 9 -12.8 77 77 NNW 13 20 30.41 1030 3 4 0.01 0.25
10:45 am 10:45 Cloudy 17 -8.3 9 -12.8 70 70 NNW 10 17 30.39 1029 3 5 0.01 0.25
10:53 am 10:53 Cloudy with Haze 16 -8.9 9 -12.8 74 74 NNW 10 17 30.37 1028 3 5 0.01 0.25
11:03 am 11:03 Cloudy with Light Snow 17 -8.3 11 -11.7 77 77 NW 13 20 30.39 1029 1 2 0.00 0.00
11:05 am 11:05 Cloudy with Light Snow 17 -8.3 10 -12.2 74 74 NW 13 20 30.39 1029 2 3 0.00 0.00
11:53 am 11:53 Cloudy with Light Snow 18 -7.8 10 -12.2 71 71 NW 10 17 30.35 1028 3 4 0.00 0.00
12:28 pm 12:28 Cloudy with Light Snow 18 -7.8 10 -12.2 71 71 NW 14 22 30.37 1029 4 6 0.00 0.00
12:53 pm 12:53 Cloudy 19 -7.2 9 -12.8 65 65 NW 14 22 30.35 1028 9 14 0.00 0.00
1:29 pm 13:29 Cloudy with Light Snow 18 -7.8 10 -12.2 71 71 NW 13 20 30.37 1029 3 4 0.00 0.00
1:40 pm 13:40 Cloudy with Light Snow 19 -7.2 10 -12.2 68 68 NW 13 20 30.36 1028 4 6 0.00 0.00
1:53 pm 13:53 Cloudy with Light Snow 19 -7.2 10 -12.2 68 68 NNW 12 19 30.35 1028 3 5 0.00 0.00
1:57 pm 13:57 Cloudy with Light Snow 18 -7.8 10 -12.2 71 71 NW 8 13 30.37 1029 3 4 0.00 0.00
2:00 pm 14:00 Cloudy with Light Snow 19 -7.2 10 -12.2 68 68 NNW 10 17 30.36 1028 5 8 0.00 0.00
2:01 pm 14:01 Cloudy with Light Snow 19 -7.2 9 -12.8 65 65 NW 10 17 30.36 1028 3 4 0.00 0.00
2:08 pm 14:08 Cloudy 20 -6.7 8 -13.3 60 60 NW 12 19 30.36 1028 9 14 0.00 0.00
2:17 pm 14:17 Cloudy 20 -6.7 9 -12.8 62 62 NW 13 20 30.36 1028 3 5 0.00 0.00
2:29 pm 14:29 Cloudy with Light Snow 18 -7.8 11 -11.7 74 74 NNW 14 22 30.37 1029 3 4 0.00 0.00
2:34 pm 14:34 Cloudy with Light Snow 18 -7.8 11 -11.7 74 74 NNW 12 19 30.37 1029 1 2 0.00 0.00
2:50 pm 14:50 Cloudy with Light Snow 19 -7 9 -13 63 63 NW 13 20 30.36 1028 3 4 0.00 0.00
2:53 pm 14:53 Cloudy with Light Snow 19 -7.2 8 -13.3 62 62 NW 13 20 30.35 1028 3 5 0.00 0.00
3:08 pm 15:08 Cloudy with Light Snow 18 -7.8 11 -11.7 74 74 NW 13 20 30.37 1029 2 3 0.00 0.00
3:12 pm 15:12 Cloudy with Light Snow 18 -7.8 12 -11.1 77 77 NW 13 20 30.37 1029 1 1 0.00 0.00
3:22 pm 15:22 Cloudy with Light Snow 20 -6.7 12 -11.1 71 71 NW 10 17 30.36 1028 2 3 0.00 0.00
3:24 pm 15:24 Cloudy with Light Snow 20 -6.7 10 -12.2 65 65 NW 10 17 30.36 1028 3 5 0.00 0.00
3:36 pm 15:36 Cloudy 19 -7.2 8 -13.3 62 62 NNW 10 17 30.36 1028 10 16 0.00 0.00
3:53 pm 15:53 Cloudy with Light Snow 19 -7.2 9 -12.8 65 65 NNW 9 15 30.35 1028 7 11 0.00 0.00
4:53 pm 16:53 Cloudy 20 -6.7 8 -13.3 60 60 WNW 9 15 30.34 1028 10 16 0.00 0.00
5:53 pm 17:53 Cloudy 19 -7.2 11 -11.7 71 71 NNW 13 20 30.35 1028 9 14 0.00 0.00
6:08 pm 18:08 Cloudy 19 -7.2 11 -11.7 71 71 NNW 12 19 30.35 1028 7 11 0.00 0.00
6:15 pm 18:15 Cloudy 19 -7.2 8 -13.3 62 62 NNW 9 15 30.35 1028 9 14 0.00 0.00
6:53 pm 18:53 Partly Cloudy 16 -8.9 6 -14.4 65 65 NNW 8 13 30.35 1028 10 16 0.00 0.00
7:53 pm 19:53 Cloudy 17 -8.3 10 -12.2 74 74 NNW 9 15 30.34 1027 10 16 0.00 0.00
8:53 pm 20:53 Cloudy 16 -8.9 10 -12.2 77 77 NNW 6 9 30.34 1028 10 16 0.00 0.00
9:53 pm 21:53 Cloudy 13 -10.6 9 -12.8 84 84 NNW 6 9 30.35 1028 10 16 0.00 0.00
10:53 pm 22:53 Cloudy 14 -10 10 -12.2 84 84 W 6 9 30.34 1027 10 16 0.00 0.00
11:53 pm 23:53 Cloudy 15 -9.4 10 -12.2 80 80 WNW 6 9 30.31 1026 10 16 0.00 0.00

Powered by AerisWeather